{"data":{"norad_id":55796,"epoch":"2026-05-25T03:15:16.920000Z","epoch_age_seconds":66450,"freshness":"FRESH","line1":"1 55796U 23029A   26145.13561250  .00000038  00000+0  60880-4 0  9995","line2":"2 55796  87.9164 279.0673 0002346 101.9752 258.1644 13.20769916158102","mean_motion":13.20769916,"eccentricity":0.0002346,"inclination_deg":87.9164,"raan_deg":279.0673,"arg_perigee_deg":101.9752,"mean_anomaly_deg":258.1644,"bstar":6.088e-5,"rev_number":15810,"period_min":109.0273167609,"perigee_km":1180.0070545877,"apogee_km":1183.5541679309,"semimajor_km":7559.9176112593,"source":"CELESTRAK","updated_at":"2026-05-25T13:38:22.648446Z"}}